FORMOSAT-5

Last updated on Thu Oct 30 2025 00:02:32 GMT+0000 (Coordinated Universal Time)

1 42920U 17049A 25302.50126229 .00000311 00000+0 89823-4 0 9995 2 42920 98.2491 17.6899 0012218 70.4147 289.8366 14.50965100433226
UTC large
Height (km)
Speed (km/s)
/
Latitude / Longitude
Inclination (degrees)
Orbital Period (minutes)
Azimuth
Elevation
Range (km)
Doppler Factor

Next 0 passes for location: London (51.5072 / 0.1276)

Sorry there are no passes over London.